Date,TemperatureHighF,TemperatureAvgF,TemperatureLowF,DewpointHighF,DewpointAvgF,DewpointLowF,HumidityHigh,HumidityAvg,HumidityLow,PressureMaxIn,PressureMinIn,WindSpeedMaxMPH,WindSpeedAvgMPH,GustSpeedMaxMPH,PrecipitationSumIn
2013-2-1,31.4,23.4,16.9,17.5,11.2,6.9,73,59,42,30.58,30.35,16,2,16,0.00
2013-2-2,48.9,36.0,23.3,30.9,24.7,15.3,78,64,45,30.35,30.13,11,1,14,0.01
2013-2-3,50.4,41.6,34.2,32.4,28.6,24.3,83,61,40,30.18,30.07,16,2,18,0.00
2013-2-4,56.2,43.7,32.9,40.5,32.8,25.2,80,66,40,30.14,29.92,11,1,11,0.00
2013-2-5,58.8,46.9,39.2,46.9,41.1,36.2,90,81,56,30.08,29.94,6,0,7,0.00
2013-2-6,61.2,47.0,36.4,38.8,33.9,30.0,93,64,34,30.25,30.08,9,1,10,0.01
2013-2-7,69.4,56.3,44.2,52.1,43.6,30.8,91,63,49,30.09,29.88,11,0,11,0.17
2013-2-8,54.7,41.5,32.2,52.2,36.3,28.2,93,82,69,30.35,29.90,15,4,17,0.32
2013-2-9,52.9,41.3,31.4,37.8,30.5,26.4,83,67,46,30.39,30.07,9,1,10,0.01
2013-2-10,56.6,52.2,47.9,53.7,45.1,35.8,93,78,56,30.08,29.77,15,1,20,0.53
2013-2-11,55.7,47.4,41.0,53.3,33.6,28.3,92,60,38,30.20,29.93,9,0,11,0.00
2013-2-12,51.8,44.2,33.3,37.3,33.4,29.5,88,67,50,30.18,29.81,8,0,9,0.03
2013-2-13,42.7,39.1,35.9,37.6,35.4,33.3,92,86,74,30.02,29.78,12,2,12,0.24
2013-2-14,62.8,46.5,34.3,40.3,34.5,31.0,97,67,32,30.05,29.99,11,1,12,0.01
2013-2-15,50.7,43.1,33.8,34.6,29.9,20.4,78,60,39,30.22,30.05,18,3,18,0.00
2013-2-16,37.9,30.4,24.9,20.8,17.4,12.7,78,59,37,30.27,30.20,14,2,15,0.00
2013-2-17,53.8,38.9,25.3,27.3,21.7,15.9,68,52,31,30.30,30.11,11,1,14,0.00
2013-2-18,60.9,48.5,40.3,47.5,38.2,25.4,97,69,45,30.11,29.77,27,3,27,0.96
2013-2-19,47.9,39.9,33.6,42.2,26.0,16.0,83,59,39,30.30,29.91,17,2,17,0.00
2013-2-20,34.4,30.7,25.7,19.4,15.9,12.6,65,54,45,30.40,30.23,8,1,11,0.00
2013-2-21,42.3,34.5,28.9,40.4,27.2,17.6,93,75,52,30.27,29.81,13,2,13,1.33
2013-2-22,44.1,40.8,35.1,41.3,37.2,31.0,94,87,77,30.09,29.86,9,0,9,0.01
2013-2-23,46.1,36.1,28.4,31.0,27.6,24.9,88,72,50,30.09,29.98,11,1,11,0.00
2013-2-24,58.7,41.3,27.9,30.5,26.2,24.4,88,59,31,30.17,29.98,9,1,10,0.00
2013-2-25,64.0,50.3,37.6,47.0,33.3,24.9,92,54,28,29.99,29.38,12,3,17,0.43
2013-2-26,50.6,44.2,38.9,48.7,39.3,31.9,93,83,70,29.78,29.35,17,3,19,0.19
2013-2-27,40.4,38.6,36.4,32.7,30.7,27.4,77,73,64,29.96,29.78,12,3,16,0.00
2013-2-28,39.1,36.5,33.9,32.3,28.0,24.7,89,71,62,30.12,29.95,11,2,17,0.00